Погода Тангуй

Погода Тангуй : погода сейчас, прогноз погоды и архив. Всё, что Вы хотите узнать о погоде Тангуй!

Хотите узнать прогноз погоды Тангуй? Тогда Вам сюда: Погода Тангуй

Поиск расширенной информации на нашем сайте:

Другие новости

Новости СМИ2

Главная страница сайта

Новости сайта

03.07.2017

Напоминаем, что на нашем специализированном сайте Метеоцентр.Азия вы можете получить высокодетализированные автоматические прогнозы погоды по пунктам России, СНГ и мира в авиационном формате (включающие направление и скорость ветра, видимость, явления погоды, количество и форму облачности, нижнюю и верхнюю границу облачности).


Погода Тангуй - сегодня

Время (UTC), дата Ветер
(°,м/с) 
Видим.   Явления Облачность Т
(°С)
Тd
(°С)
f(%) Тe
(°С)
Pmin
(гПа)
dP
(гПа)
Po
(мм)
O2
(г/м3)
Тmin Tmax R s Состояние
почвы
03 22.05.18 240 (ЮЗ) 20000 м  слаб. ливневой дождь  10/10 600 м кучево-дожд. 
[Cb cap]
+6.5 +0.9 67 +6  1005.5  -2.7  716  282           
06 22.05.18 190 (Ю) 20000 м  слаб. ливневой дождь  10/10 300 м кучево-дожд. 
[Cb cap]
+5 +3.8 92 +5  1002.7  -3  714  282           
09 22.05.18 250 (З) 20000 м  слаб. ливневой дождь  10/10 300 м кучево-дожд. 
[Cb cap]
+7.2 +6.3 94 +7  1000.2  -2  713  279           
12 22.05.18 260 (З) 20000 м  слаб. ливневой дождь  10/10 600 м кучево-дожд. 
[Cb cap]
+8.4 +7.8 96 +9  999.3  -0.6  712  277    +8.5     
15 22.05.18 250 (З) н/о  в посл. час ливневой дождь  9/9 600 м кучево-дожд. 
[Cb cap]
+9.4 +8.5 94 +10  998.8  -0.2  712  276           
18 22.05.18 260 (З) н/о  {ливн. осадки}  9/8 300 м средняя 
[St|Ac trans]
+9.1 +8.3 95 +10  996.6  -2.2  710  275           
21 22.05.18 250 (З) 20000 м  слаб. ливневой дождь  10/5 600 м кучево-дожд., средняя 
[Cb cap|Ac und]
+9 +8.2 95 +10  994.9  -1.7  709  275           
00 23.05.18 290 (З) 20000 м  слаб. ливневой дождь  10/8 300 м кучево-дожд., средняя 
[Cb cap|Ac und]
+8.2 +6.3 88 +9  995.4  0.4  710  276  +8.2    0.3    влажная 
06 23.05.18 290 (З) 20000 м  {ливн. осадки}  10/6 600 м кучево-дожд., средняя 
[Cb cap|Ac und]
+9.9 +5.6 75 +10  995.6  0.4  710  275           
09 23.05.18 270 (З) 20000 м    9/4 600 м кучево-дожд., средняя 
[Cb cap|Ac trans]
+10.8 +4.3 64 +12  995.7  0.3  710  274           
12 23.05.18 250 (З) 20000 м    9/3 600 м кучево-дожд., средняя 
[Cb cap|Ac trans]
+10.2 +4.1 66 +11  996.1  0.2  710  275    +11.6  0.0     
15 23.05.18 260 (З) н/о  слаб. ливневой дождь  10/8 600 м кучево-дожд., средняя 
[Cb cap|Ac trans]
+7.6 +6.3 91 +9  996.8  0.3  710  277           
18 23.05.18 тихо ()   н/о  {ливн. осадки}  10/10 600 м кучево-дожд. 
[Cb cap]
+6.9 +6 94 +7  996.6  -0.3  710  278           
21 23.05.18 тихо ()   20000 м    10/4 600 м кучево-дожд., средняя, верхняя 
[Cb cap|Ac trans|Ci fib]
+6.6 +5.8 95 +7  997.3  0.6  711  279           
00 24.05.18 040 (СВ) 20000 м  в посл. час ливневой дождь  10/8 600 м кучево-дожд., верхняя 
[Cb cap|Ci fib]
+6.7 +5.4 91 +8  1000  2.6  713  279  +6.2      влажная 
03 24.05.18 220 (ЮЗ) 20000 м  в посл. час ливневой дождь  10/4 600 м кучево-дожд., средняя, верхняя 
[Cb cap|Ac trans|Ci fib]
+9.8 +6.1 78 +10  1001.8  2.2  714  277           
06 24.05.18 320 (СЗ) 20000 м  {ливн. осадки}  9/4 600 м кучево-дожд., средняя 
[Cb cap|Ac trans]
+11 +4.7 65 +11  1004.8  716  277           
09 24.05.18 010 (С) 20000 м    10/3 1000 м верхняя 
[Cu hum|Cs]
+11.6 +2.9 55 +12  1005.8  1.1  717  277           
12 24.05.18 280 (З) 20000 м    10/0 средняя, верхняя 
[Ac trans|Ci fib]
+10.8 +2.8 58 +12  1009.3  3.2  720  278    +11.7  0.0     
15 24.05.18 300 (СЗ) н/о    10/5 600 м кучево-дожд., средняя, верхняя 
[Cb cap|Ac trans|Cs]
+8.4 +3.5 71 +9  1011.6  1.7  721  281           
18 24.05.18 340 (С) н/о    10/0 средняя, верхняя 
[Ac trans|Ci fib]
+7.6 +3.9 77 +8  1012.5  0.8  722  282           
21 24.05.18 350 (С) 20000 м  слаб. ливневой дождь  10/5 600 м кучево-дожд., средняя 
[Cb cap|Ac und]
+5.8 +4.5 91 +7  1014.7  1.7  723  284           
00 25.05.18 350 (С) 20000 м  слаб. ливневой дождь  10/8 600 м кучево-дожд., средняя 
[Cb cap|Ac und]
+6 +4.7 91 +6  1016.1  1.4  724  285  +5.6      влажная 
03 25.05.18 360 (С) 20000 м  слаб. ливневой дождь  10/5 600 м кучево-дожд., средняя 
[Cb cap|Ac und]
+8.3 +5.1 80 +8  1015.7  0.1  724  282           
06 25.05.18 010 (С) 20000 м  слаб. ливневой дождь  10/10 600 м кучево-дожд. 
[Cb cap]
+6.7 +5.4 91 +8  1016.1  -0.1  724  284           
Время (UTC), дата Ветер
(°,м/с) 
Видим.   Явления Облачность Т
(°С)
Тd
(°С)
f(%) Тe
(°С)
Pmin
(гПа)
dP
(гПа)
Po
(мм)
O2
(г/м3)
Тmin Tmax R s Состояние
почвы

Для получения пояснительной информации подведите курсор к названию столбца.

ПОГОДА Тангуй - архив

Всё, что Вы хотите узнать о погоде Тангуй - удобно и подробно!

Выберите нужную дату (начиная с 1 января 2015* года) и нажмите кнопку "Найти".
Будут отображены архивные сводки погоды по пункту Тангуй, начиная с указанной даты.


Отображать данные в формате CSV (для использования в таблицах Excel)


Внимание! Наш архив погоды предназначен исключительно для личного некоммерческого использования в познавательных целях. Если Вам необходимы официальные справки о состоянии погоды (для производственных, юридических, коммерческих и т.п. целей), обращайтесь в органы Росгидромета.

*Примечание: данная дата относится к архиву по метеостанциям СССР (Россия, СНГ, Балтия).
Архив по метеостанциям Зарубежной Европы и Азии (кроме Китая) хранится 10 дней, по другим регионам земного шара (Китай, Африка, Америка, Австралия, Океания) - 1 день.

Тангуй - район местоположения метеостанции


Название, широта, долгота, высота метеостанции:
Тангуй 55.4°ш. 101°д. 423 м над ур. моря [Российская Федерация]

Дополнительная информация

В oтличие oт бoльшинства пoгoдных сайтoв мы публикуем пoдрoбную метеoинфoрмацию в детальнoм прoфессиoнальнoм фoрмате.

Характеристики температуры и влажнoсти вoздуха измеряются на высoте 2 м в тени вдали oт зданий и деревьев.
Скoрoсть ветра измеряется на высoте 10 м (на урoвне рoста челoвека скoрoсть ветра ниже в 1.5-2 раза). Если метеoстанция нахoдится в гoрoде или в лесу, тo скoрoсть ветра занижена на 2-4 м/с пo сравнению с oткрытым местoм. Скoрoсть ветра над акватoриями крупных рек и oзёр, а также на вершинах хoлмoв на 2-5 м/с выше, чем в oбычных услoвиях.
Атмoсфернoе давление в разных тoчках местнoсти мoжет значительнo oтличаться oт давления на метеoстанции, в зависимoсти oт услoвий рельефа (при пoдъёме на 10 м давление пoнижается примернo на 1 мм рт.ст.).